Content
SEND FEEDBACK

Daily
Averages
Monthly
Summary
United States of America

SOUTHPORT, NORTH CAROLINA


Home > North America > United States > North Carolina
Elevation: 38 feet     Latitude: 34 00N     Longitude: 078 01W

WEATHER
 
SELECT A DAY
Number of Records: 142,322;   Date Range: 8/21/01 - 9/30/14
 
SHARE

PRINT THIS DATA

[ ← Previous Day ]
WEATHER ALMANAC - JANUARY 28, 2013
[ Next Day → ]
[ °C ]   °F
Weather ElementAverageHighLow
Temperature45.9 °F56.7 °F (1:15 pm)31.5 °F (12:55 am)
Dewpoint41.2 °F53.6 °F (8:35 pm)26.1 °F (1:15 am)
Humidity84.2 %99 % (7:55 pm)68 % (10:55 am)
Barometer30.39 in30.50 in (12:35 am)30.29 in (10:55 pm)
Wind Speed4 mph8.1 mph (6:15 am)
Weather ElementAverage
Visibility8.9 mi
Wind DirectionNE (47.3 °)

Weather ElementTotal
Precipitation---
Heating Degree Days20.9 (Base 65)
Averaged from 70 records on January 28, 2013
WEATHER CONDITIONS BREAKOUT
WIND DIRECTION BREAKOUT
WEATHER BY HOUR - JANUARY 28, 2013
[ °C ]   °F
Local TimeTemperatureDewpointHumidityBarometerVisibilityWind DirectionWind SpeedGust SpeedPrecipitationEventsConditions
12:35 AM31.6 °F26.2 °F80 %30.50 in10.0 miNorth (10°)4.6 mphClear
12:55 AM31.5 °F26.2 °F81 %30.49 in10.0 miNNE (20°)4.6 mphClear
1:15 AM31.5 °F26.1 °F80 %30.48 in10.0 miNorth (10°)5.8 mphClear
1:35 AM31.6 °F26.1 °F80 %30.47 in10.0 miNNE (20°)5.8 mphClear
1:55 AM32.0 °F26.2 °F79 %30.47 in10.0 miNNE (20°)4.6 mphClear
2:15 AM32.0 °F26.6 °F80 %30.47 in10.0 miNorth (10°)6.9 mphClear
2:35 AM32.0 °F27.0 °F82 %30.46 in10.0 miNorth (10°)6.9 mphClear
2:55 AM32.4 °F27.1 °F81 %30.46 in10.0 miNNE (20°)6.9 mphClear
3:15 AM32.5 °F27.5 °F82 %30.45 in10.0 miNNE (30°)5.8 mphClear
3:35 AM33.1 °F28.4 °F83 %30.44 in10.0 miNNE (20°)5.8 mphClear
3:55 AM33.8 °F29.1 °F83 %30.44 in10.0 miNorth (10°)5.8 mphClear
4:15 AM33.8 °F29.3 °F84 %30.44 in10.0 miNNE (30°)4.6 mphClear
4:35 AM34.3 °F30.2 °F85 %30.44 in10.0 miNNE (20°)5.8 mphClear
4:55 AM34.7 °F30.7 °F85 %30.44 in10.0 miNNE (30°)6.9 mphClear
5:15 AM34.9 °F30.7 °F85 %30.44 in10.0 miNNE (20°)5.8 mphClear
5:35 AM35.1 °F31.1 °F85 %30.44 in10.0 miNNE (20°)4.6 mphClear
5:55 AM35.6 °F31.1 °F84 %30.44 in10.0 miNNE (20°)6.9 mphClear
6:15 AM36.0 °F31.3 °F83 %30.45 in10.0 miNNE (20°)8.1 mphMostly Cloudy
6:35 AM36.1 °F31.3 °F83 %30.45 in10.0 miNorth (10°)8.1 mphOvercast
6:55 AM36.5 °F31.3 °F81 %30.45 in10.0 miNNE (30°)5.8 mphMostly Cloudy
7:15 AM36.0 °F31.5 °F84 %30.44 in10.0 miNNE (30°)4.6 mphScattered Clouds
7:35 AM36.5 °F32.0 °F84 %30.45 in10.0 miNNE (20°)5.8 mphClear
7:55 AM36.9 °F32.0 °F83 %30.45 in10.0 miNorth (10°)6.9 mphClear
8:15 AM38.3 °F32.2 °F79 %30.46 in10.0 miNorth (10°)5.8 mphScattered Clouds
8:35 AM39.4 °F32.9 °F78 %30.46 in10.0 miNNE (20°)6.9 mphOvercast
8:55 AM40.1 °F33.6 °F78 %30.46 in10.0 miNNE (20°)5.8 mphOvercast
9:15 AM42.6 °F35.4 °F76 %30.46 in10.0 miNNE (30°)5.8 mphScattered Clouds
9:35 AM43.7 °F37.0 °F77 %30.46 in10.0 miNE (50°)4.6 mphClear
9:55 AM47.3 °F39.0 °F73 %30.46 in10.0 miNE (40°)6.9 mphScattered Clouds
10:15 AM49.3 °F41.0 °F73 %30.46 in10.0 miNE (40°)6.9 mphMostly Cloudy
10:35 AM50.9 °F42.1 °F72 %30.45 in10.0 miNNE (20°)5.8 mphScattered Clouds
10:55 AM51.4 °F41.2 °F68 %30.45 in10.0 miNorth (10°)6.9 mphScattered Clouds
11:15 AM52.7 °F42.4 °F68 %30.44 in10.0 miEast (80°)5.8 mphScattered Clouds
11:35 AM53.1 °F43.9 °F71 %30.43 in10.0 miNE (50°)5.8 mphClear
12:15 PM54.1 °F45.7 °F73 %30.40 in10.0 miEast (90°)5.8 mphClear
12:35 PM54.9 °F46.0 °F72 %30.39 in10.0 miEast (80°)6.9 mphClear
12:55 PM55.9 °F46.8 °F71 %30.38 in10.0 miEast (90°)6.9 mphClear
1:15 PM56.7 °F47.5 °F71 %30.37 in10.0 miESE (110°)3.5 mphClear
1:35 PM56.7 °F48.0 °F73 %30.37 in10.0 miESE (110°)4.6 mphClear
1:55 PM55.9 °F47.7 °F74 %30.35 in10.0 miEast (90°)3.5 mphMostly Cloudy
2:15 PM54.9 °F48.0 °F78 %30.35 in10.0 miESE (110°)4.6 mphOvercast
2:35 PM55.9 °F48.7 °F77 %30.34 in10.0 miEast (90°)4.6 mphOvercast
2:55 PM55.8 °F48.4 °F76 %30.34 in10.0 miENE (60°)4.6 mphOvercast
3:15 PM55.8 °F49.3 °F79 %30.34 in10.0 miCalmOvercast
3:35 PM55.4 °F49.1 °F79 %30.33 in10.0 miCalmMostly Cloudy
3:55 PM55.2 °F50.2 °F83 %30.32 in10.0 miSE (140°)4.6 mphScattered Clouds
4:15 PM54.0 °F49.3 °F84 %30.32 in10.0 miSE (130°)3.5 mphScattered Clouds
4:35 PM52.7 °F48.2 °F85 %30.32 in10.0 miCalmScattered Clouds
4:55 PM52.5 °F48.2 °F85 %30.32 in10.0 miCalmScattered Clouds
5:15 PM52.3 °F48.2 °F86 %30.32 in10.0 miCalmMostly Cloudy
5:35 PM51.8 °F48.4 °F88 %30.32 in10.0 miCalmScattered Clouds
5:55 PM51.4 °F48.4 °F89 %30.32 in10.0 miCalmMostly Cloudy
6:15 PM50.4 °F48.2 °F92 %30.32 in10.0 miCalmScattered Clouds
6:35 PM50.9 °F49.3 °F94 %30.32 in10.0 miCalmScattered Clouds
6:55 PM50.9 °F49.8 °F96 %30.31 in10.0 miCalmScattered Clouds
7:15 PM51.6 °F50.7 °F97 %30.31 in7.0 miCalmOvercast
7:35 PM52.9 °F52.3 °F98 %30.31 in4.0 miCalmOvercast
7:55 PM52.7 °F52.5 °F99 %30.31 in5.0 miSouth (190°)4.6 mphMostly Cloudy
8:15 PM52.5 °F52.2 °F99 %30.30 in5.0 miCalmClear
8:35 PM54.0 °F53.6 °F99 %30.30 in10.0 miCalmClear
8:55 PM52.5 °F52.0 °F98 %30.31 in7.0 miSW (230°)3.5 mphClear
9:15 PM53.6 °F52.9 °F97 %30.30 in10.0 miCalmClear
9:35 PM53.2 °F52.7 °F98 %30.30 in10.0 miWSW (240°)3.5 mphClear
9:55 PM52.9 °F52.3 °F98 %30.30 in7.0 miCalmClear
10:15 PM52.7 °F52.2 °F98 %30.30 in7.0 miWSW (240°)3.5 mphClear
10:35 PM52.0 °F51.8 °F99 %30.30 in2.0 miCalmMist
10:55 PM52.2 °F51.8 °F99 %30.29 in1.2 miCalmMist
11:15 PM51.6 °F51.4 °F99 %30.29 in0.5 miCalmFogFog
11:35 PM50.5 °F50.4 °F99 %30.29 in0.2 miWest (270°)3.5 mphFogFog
11:55 PM51.6 °F51.4 °F99 %30.29 in0.2 miSW (230°)3.5 mphFogFog
Hourly data recorded from KSUT, located miles away from Southport, North Carolina







STORIES FROM OUR PARTNERS